Location: St Paul
(33.9360°N, 83.4200°W)
Time: 04:52:46
(UTC-04:00)

Milstar 3 Cent rocket - Pass Details

Date: 06 October 2017
Orbit: 713 x 5141 km, 28.3° (Epoch: 19 June)

Event Time Altitude Azimuth Distance (km) Brightness Sun altitude
Rises 20:13:48 0° 267° (W) 5,074 8.2 -13.9°
Reaches altitude 10° 20:17:59 10° 263° (W) 3,491 6.7 -14.8°
Maximum altitude 20:25:22 49° 191° (S) 1,163 2.9 -16.3°
Enters shadow 20:28:21 23° 126° (SE) 1,630 3.2 -16.9°
